ALK89L VCBI-VGHS

Flight info

Callsign ALK89L
Flight time 2h 54m
Altitude 37000
Route ATETA1D ATETA/N0437F390 DCT SAGOR DCT SUGAN Q10 PONOG DCT BEMAK A462 AKEVO
Aircraft A20N/M-SDE2E3FGHIRWXY/LB1

Departure

Time 2026-04-29 15:15
Airport Bandaranaike International Colombo Airport (VCBI)

Arrival

Time 2026-04-29 18:09
Airport Hazrat Shahjalal International Airport (VGHS)
Time Latitude Longitude Altitude Speed Heading
2026-04-29 15:00 7.17615 79.88567 30 ft 0 kts 217°
2026-04-29 15:06 7.17627 79.88577 30 ft 3 kts 217°
2026-04-29 15:06 7.17642 79.88588 30 ft 3 kts 217°
2026-04-29 15:07 7.17657 79.88599 30 ft 3 kts 217°
2026-04-29 15:07 7.17672 79.88611 30 ft 3 kts 217°
2026-04-29 15:07 7.17686 79.88622 30 ft 3 kts 229°
2026-04-29 15:07 7.17694 79.88638 30 ft 3 kts 268°
2026-04-29 15:08 7.17690 79.88656 30 ft 3 kts 303°
2026-04-29 15:08 7.17685 79.88663 30 ft 0 kts 309°
2026-04-29 15:09 7.17688 79.88659 30 ft 1 kts 309°
2026-04-29 15:10 7.17695 79.88651 30 ft 2 kts 308°
2026-04-29 15:10 7.17704 79.88639 30 ft 3 kts 308°
2026-04-29 15:10 7.17730 79.88606 30 ft 8 kts 308°
2026-04-29 15:10 7.17769 79.88554 30 ft 11 kts 308°
2026-04-29 15:11 7.17817 79.88491 30 ft 12 kts 307°
2026-04-29 15:11 7.17871 79.88436 30 ft 11 kts 342°
2026-04-29 15:11 7.17934 79.88463 31 ft 10 kts 36°
2026-04-29 15:11 7.18001 79.88515 30 ft 15 kts 37°
2026-04-29 15:12 7.18090 79.88581 30 ft 16 kts 38°
2026-04-29 15:12 7.18178 79.88649 30 ft 16 kts 37°
2026-04-29 15:12 7.18267 79.88717 30 ft 17 kts 37°
2026-04-29 15:12 7.18367 79.88795 30 ft 19 kts 38°
2026-04-29 15:13 7.18472 79.88874 31 ft 19 kts 37°
2026-04-29 15:13 7.18575 79.88948 31 ft 15 kts 16°
2026-04-29 15:13 7.18651 79.88902 32 ft 13 kts 308°
2026-04-29 15:13 7.18694 79.88832 32 ft 10 kts 261°
2026-04-29 15:14 7.18568 79.88719 31 ft 53 kts 217°
2026-04-29 15:14 7.18085 79.88352 32 ft 117 kts 217°
2026-04-29 15:14 7.17295 79.87748 57 ft 162 kts 219°
2026-04-29 15:14 7.16451 79.87047 589 ft 158 kts 220°
2026-04-29 15:15 7.15712 79.86251 1222 ft 154 kts 238°
2026-04-29 15:15 7.15536 79.85108 1435 ft 185 kts 283°
2026-04-29 15:15 7.16076 79.83867 1747 ft 211 kts 292°
2026-04-29 15:15 7.16656 79.82388 2110 ft 240 kts 285°
2026-04-29 15:16 7.17241 79.80756 2699 ft 257 kts 294°
2026-04-29 15:16 7.18348 79.79289 3360 ft 271 kts 318°
2026-04-29 15:16 7.20065 79.78477 4094 ft 278 kts 347°
2026-04-29 15:16 7.21988 79.78225 4953 ft 280 kts 355°
2026-04-29 15:17 7.23946 79.78094 5730 ft 284 kts 356°
2026-04-29 15:17 7.25924 79.77981 6506 ft 286 kts 357°
2026-04-29 15:17 7.27923 79.77866 7247 ft 289 kts 357°
2026-04-29 15:17 7.29943 79.77744 7990 ft 293 kts 357°
2026-04-29 15:18 7.31986 79.77618 8739 ft 296 kts 357°
2026-04-29 15:18 7.34050 79.77489 9507 ft 299 kts 357°
2026-04-29 15:18 7.36136 79.77358 10193 ft 303 kts 358°
2026-04-29 15:18 7.38302 79.77222 10548 ft 321 kts 358°
2026-04-29 15:19 7.40584 79.77077 10891 ft 335 kts 358°
2026-04-29 15:19 7.42939 79.76927 11431 ft 342 kts 358°
2026-04-29 15:19 7.45325 79.76774 12058 ft 345 kts 358°
2026-04-29 15:19 7.47734 79.76619 12699 ft 348 kts 358°
2026-04-29 15:20 7.50164 79.76464 13356 ft 351 kts 358°
2026-04-29 15:20 7.52609 79.76308 13979 ft 354 kts 358°
2026-04-29 15:20 7.54783 79.76170 14491 ft 357 kts 358°
2026-04-29 15:20 7.57273 79.76012 15076 ft 360 kts 358°
2026-04-29 15:21 7.59781 79.75853 15673 ft 363 kts 358°
2026-04-29 15:21 7.62315 79.75692 16279 ft 366 kts 358°
2026-04-29 15:21 7.64865 79.75530 16875 ft 369 kts 358°
2026-04-29 15:21 7.67439 79.75366 17452 ft 372 kts 358°
2026-04-29 15:22 7.70038 79.75201 18013 ft 376 kts 358°
2026-04-29 15:22 7.72656 79.75034 18504 ft 379 kts 358°
2026-04-29 15:22 7.75297 79.74866 18962 ft 382 kts 358°
2026-04-29 15:22 7.77962 79.74696 19416 ft 385 kts 358°
2026-04-29 15:23 7.80653 79.74524 19861 ft 389 kts 358°
2026-04-29 15:23 7.83364 79.74351 20306 ft 392 kts 358°
2026-04-29 15:23 7.86098 79.74177 20751 ft 395 kts 358°
2026-04-29 15:23 7.88857 79.74001 21196 ft 399 kts 358°
2026-04-29 15:24 7.91638 79.73823 21644 ft 402 kts 358°
2026-04-29 15:24 7.94440 79.73644 22098 ft 405 kts 358°
2026-04-29 15:24 7.97267 79.73464 22565 ft 408 kts 358°
2026-04-29 15:24 8.00118 79.73282 23006 ft 412 kts 358°
2026-04-29 15:25 8.02986 79.73099 23450 ft 415 kts 358°
2026-04-29 15:25 8.05880 79.72914 23835 ft 418 kts 358°
2026-04-29 15:25 8.08792 79.72728 24220 ft 420 kts 358°
2026-04-29 15:25 8.11680 79.72544 24621 ft 423 kts 358°
2026-04-29 15:26 8.14622 79.72356 25001 ft 425 kts 358°
2026-04-29 15:26 8.17582 79.72167 25374 ft 427 kts 357°
2026-04-29 15:26 8.20562 79.71977 25752 ft 430 kts 357°
2026-04-29 15:26 8.23553 79.71786 26115 ft 432 kts 357°
2026-04-29 15:27 8.26566 79.71593 26467 ft 435 kts 357°
2026-04-29 15:27 8.29599 79.71399 26804 ft 438 kts 357°
2026-04-29 15:27 8.32644 79.71204 27138 ft 440 kts 357°
2026-04-29 15:27 8.35708 79.71008 27494 ft 442 kts 357°
2026-04-29 15:28 8.38786 79.70811 27823 ft 444 kts 356°
2026-04-29 15:28 8.40873 79.70677 28039 ft 446 kts 356°
2026-04-29 15:28 8.44988 79.70414 28459 ft 449 kts 356°
2026-04-29 15:28 8.48113 79.70214 28779 ft 451 kts 356°
2026-04-29 15:29 8.51258 79.70013 29080 ft 454 kts 356°
2026-04-29 15:29 8.57590 79.69607 29689 ft 458 kts 356°
2026-04-29 15:30 8.63978 79.69199 30220 ft 462 kts 356°
2026-04-29 15:30 8.67196 79.68993 30489 ft 463 kts 356°
2026-04-29 15:30 8.70418 79.68786 30770 ft 465 kts 356°
2026-04-29 15:30 8.73643 79.68580 31051 ft 465 kts 356°
2026-04-29 15:31 8.76875 79.68372 31355 ft 465 kts 356°
2026-04-29 15:31 8.80103 79.68166 31757 ft 463 kts 356°
2026-04-29 15:31 8.83300 79.67961 32173 ft 460 kts 356°
2026-04-29 15:31 8.86483 79.67757 32572 ft 457 kts 356°
2026-04-29 15:32 8.89658 79.67554 32925 ft 456 kts 356°
2026-04-29 15:32 8.92820 79.67351 33247 ft 455 kts 356°
2026-04-29 15:32 8.95979 79.67149 33566 ft 455 kts 356°
2026-04-29 15:32 8.99133 79.66947 33855 ft 455 kts 356°
2026-04-29 15:33 9.02292 79.66744 34094 ft 455 kts 356°
2026-04-29 15:33 9.05451 79.66542 34322 ft 455 kts 356°
2026-04-29 15:33 9.08612 79.66339 34553 ft 455 kts 356°
2026-04-29 15:33 9.11774 79.66136 34789 ft 455 kts 356°
2026-04-29 15:34 9.14936 79.65933 35032 ft 455 kts 356°
2026-04-29 15:34 9.18096 79.65730 35268 ft 455 kts 356°
2026-04-29 15:34 9.21254 79.65528 35485 ft 455 kts 356°
2026-04-29 15:34 9.24411 79.65325 35702 ft 455 kts 356°
2026-04-29 15:35 9.27571 79.65193 35904 ft 455 kts
2026-04-29 15:35 9.30727 79.65498 36091 ft 456 kts 11°
2026-04-29 15:35 9.33767 79.66393 36279 ft 456 kts 22°
2026-04-29 15:35 9.36600 79.67821 36479 ft 455 kts 29°
2026-04-29 15:36 9.39334 79.69439 36693 ft 455 kts 31°
2026-04-29 15:36 9.42020 79.71133 36885 ft 455 kts 32°
2026-04-29 15:36 9.44684 79.72857 37097 ft 454 kts 33°
2026-04-29 15:36 9.47342 79.74588 37293 ft 454 kts 33°
2026-04-29 15:37 9.50004 79.76313 37501 ft 454 kts 32°
2026-04-29 15:37 9.52669 79.78028 37687 ft 454 kts 32°
2026-04-29 15:37 9.55338 79.79736 37887 ft 453 kts 32°
2026-04-29 15:37 9.58002 79.81433 38101 ft 452 kts 32°
2026-04-29 15:38 9.60633 79.83105 38287 ft 452 kts 32°
2026-04-29 15:38 9.63293 79.84793 38473 ft 451 kts 32°
2026-04-29 15:38 9.65952 79.86481 38632 ft 451 kts 32°
2026-04-29 15:38 9.68609 79.88168 38778 ft 450 kts 32°
2026-04-29 15:39 9.71265 79.89855 38870 ft 450 kts 32°
2026-04-29 15:39 9.76555 79.93217 38883 ft 448 kts 32°
2026-04-29 15:40 9.81826 79.96569 38885 ft 447 kts 32°
2026-04-29 15:40 9.87093 79.99920 38883 ft 447 kts 32°
2026-04-29 15:41 9.92359 80.03271 38883 ft 447 kts 31°
2026-04-29 15:41 9.97633 80.06629 38885 ft 448 kts 31°
2026-04-29 15:42 10.03088 80.09669 38880 ft 448 kts 26°
2026-04-29 15:42 10.08667 80.12494 38883 ft 448 kts 25°
2026-04-29 15:43 10.14275 80.15282 38881 ft 449 kts 25°
2026-04-29 15:43 10.19892 80.18076 38882 ft 450 kts 25°
2026-04-29 15:44 10.25510 80.20879 38881 ft 450 kts 25°
2026-04-29 15:44 10.31128 80.23688 38881 ft 451 kts 25°
2026-04-29 15:45 10.36718 80.26485 38882 ft 451 kts 24°
2026-04-29 15:45 10.42346 80.29302 38883 ft 451 kts 24°
2026-04-29 15:46 10.47971 80.32118 38877 ft 451 kts 24°
2026-04-29 15:46 10.53596 80.34935 38879 ft 451 kts 24°
2026-04-29 15:47 10.59219 80.37754 38879 ft 451 kts 24°
2026-04-29 15:47 10.64846 80.40574 38876 ft 451 kts 24°
2026-04-29 15:48 10.70471 80.43395 38875 ft 451 kts 24°
2026-04-29 15:48 10.76101 80.46219 38877 ft 451 kts 24°
2026-04-29 15:49 10.81732 80.49045 38877 ft 451 kts 24°
2026-04-29 15:49 10.87362 80.51871 38875 ft 451 kts 24°
2026-04-29 15:50 10.92991 80.54699 38876 ft 451 kts 24°
2026-04-29 15:50 10.98624 80.57530 38879 ft 451 kts 24°
2026-04-29 15:51 11.04259 80.60363 38874 ft 451 kts 24°
2026-04-29 15:51 11.09884 80.63192 38873 ft 451 kts 24°
2026-04-29 15:52 11.14565 80.65547 38874 ft 451 kts 24°
2026-04-29 15:52 11.20197 80.68382 38874 ft 451 kts 24°
2026-04-29 15:53 11.25827 80.71218 38871 ft 451 kts 24°
2026-04-29 15:53 11.31456 80.74054 38874 ft 451 kts 24°
2026-04-29 15:54 11.37090 80.76893 38871 ft 452 kts 24°
2026-04-29 15:54 11.42721 80.79732 38870 ft 452 kts 24°
2026-04-29 15:55 11.48352 80.82573 38869 ft 452 kts 24°
2026-04-29 15:55 11.53990 80.85418 38873 ft 452 kts 24°
2026-04-29 15:56 11.59628 80.88265 38871 ft 452 kts 24°
2026-04-29 15:56 11.65267 80.91113 38869 ft 452 kts 24°
2026-04-29 15:57 11.70904 80.93962 38866 ft 452 kts 24°
2026-04-29 15:57 11.76539 80.96811 38870 ft 452 kts 24°
2026-04-29 15:58 11.82176 80.99662 38868 ft 452 kts 24°
2026-04-29 15:58 11.87809 81.02512 38867 ft 452 kts 24°
2026-04-29 15:59 11.93407 81.05347 38865 ft 452 kts 24°
2026-04-29 15:59 11.99079 81.08220 38867 ft 452 kts 24°
2026-04-29 16:00 12.04720 81.11079 38868 ft 452 kts 24°
2026-04-29 16:00 12.10359 81.13935 38866 ft 453 kts 24°
2026-04-29 16:01 12.16004 81.16798 38869 ft 453 kts 24°
2026-04-29 16:01 12.21612 81.19646 38870 ft 453 kts 24°
2026-04-29 16:02 12.27257 81.22512 38870 ft 453 kts 24°
2026-04-29 16:02 12.32908 81.25383 38867 ft 453 kts 24°
2026-04-29 16:03 12.38561 81.28255 38868 ft 454 kts 24°
2026-04-29 16:03 12.44217 81.31130 38865 ft 454 kts 24°
2026-04-29 16:04 12.49879 81.34009 38872 ft 454 kts 24°
2026-04-29 16:04 12.55537 81.36891 38866 ft 454 kts 24°
2026-04-29 16:05 12.61197 81.39775 38868 ft 454 kts 24°
2026-04-29 16:05 12.66860 81.42660 38869 ft 454 kts 24°
2026-04-29 16:06 12.72522 81.45545 38869 ft 455 kts 24°
2026-04-29 16:06 12.78184 81.48433 38870 ft 455 kts 24°
2026-04-29 16:07 12.83842 81.51320 38870 ft 455 kts 23°
2026-04-29 16:07 12.89506 81.54212 38865 ft 455 kts 23°
2026-04-29 16:08 12.95170 81.57106 38876 ft 455 kts 23°
2026-04-29 16:08 13.00836 81.60001 38875 ft 455 kts 23°
2026-04-29 16:09 13.06471 81.62880 38868 ft 455 kts 23°
2026-04-29 16:09 13.12180 81.65800 38875 ft 455 kts 23°
2026-04-29 16:10 13.17850 81.68703 38869 ft 456 kts 23°
2026-04-29 16:10 13.23485 81.71590 38870 ft 456 kts 23°
2026-04-29 16:11 13.29198 81.74518 38869 ft 456 kts 22°
2026-04-29 16:11 13.34833 81.77407 38871 ft 456 kts 22°
2026-04-29 16:12 13.40505 81.80316 38873 ft 456 kts 22°
2026-04-29 16:12 13.46173 81.83225 38874 ft 456 kts 22°
2026-04-29 16:13 13.51847 81.86138 38872 ft 456 kts 22°
2026-04-29 16:13 13.57515 81.89050 38874 ft 456 kts 22°
2026-04-29 16:14 13.63185 81.91964 38872 ft 456 kts 22°
2026-04-29 16:14 13.68856 81.94880 38871 ft 456 kts 22°
2026-04-29 16:15 13.74529 81.97799 38869 ft 456 kts 22°
2026-04-29 16:15 13.80194 82.00716 38877 ft 456 kts 22°
2026-04-29 16:16 13.85865 82.03637 38866 ft 455 kts 22°
2026-04-29 16:16 13.91529 82.06556 38876 ft 455 kts 22°
2026-04-29 16:17 13.97195 82.09478 38873 ft 455 kts 22°
2026-04-29 16:17 14.02860 82.12401 38883 ft 456 kts 22°
2026-04-29 16:18 14.08525 82.15325 38874 ft 455 kts 22°
2026-04-29 16:18 14.14190 82.18252 38874 ft 455 kts 22°
2026-04-29 16:19 14.19852 82.21178 38877 ft 455 kts 22°
2026-04-29 16:19 14.25510 82.24104 38870 ft 455 kts 22°
2026-04-29 16:20 14.31167 82.27030 38868 ft 455 kts 22°
2026-04-29 16:20 14.36823 82.29959 38867 ft 455 kts 22°
2026-04-29 16:21 14.42474 82.32886 38868 ft 455 kts 22°
2026-04-29 16:21 14.48127 82.35816 38871 ft 454 kts 22°
2026-04-29 16:22 14.53773 82.38744 38865 ft 454 kts 22°
2026-04-29 16:22 14.59417 82.41673 38869 ft 454 kts 22°
2026-04-29 16:23 14.65056 82.44601 38863 ft 453 kts 22°
2026-04-29 16:23 14.70690 82.47528 38863 ft 453 kts 22°
2026-04-29 16:24 14.76322 82.50455 38869 ft 453 kts 22°
2026-04-29 16:24 14.81946 82.53383 38874 ft 453 kts 22°
2026-04-29 16:25 14.87517 82.56286 38876 ft 450 kts 22°
2026-04-29 16:25 14.93142 82.59217 38876 ft 449 kts 22°
2026-04-29 16:26 14.98691 82.62108 38863 ft 449 kts 22°
2026-04-29 16:26 15.04267 82.65012 38877 ft 449 kts 22°
2026-04-29 16:27 15.09837 82.67915 38858 ft 448 kts 22°
2026-04-29 16:27 15.15404 82.70822 38860 ft 448 kts 22°
2026-04-29 16:28 15.20964 82.73725 38862 ft 447 kts 22°
2026-04-29 16:28 15.26519 82.76627 38862 ft 447 kts 22°
2026-04-29 16:29 15.32070 82.79529 38861 ft 447 kts 22°
2026-04-29 16:29 15.37612 82.82428 38859 ft 447 kts 22°
2026-04-29 16:30 15.42966 82.85758 38861 ft 452 kts 32°
2026-04-29 16:30 15.47937 82.89768 38859 ft 453 kts 34°
2026-04-29 16:31 15.52824 82.93906 38859 ft 454 kts 35°
2026-04-29 16:31 15.57703 82.98064 38858 ft 454 kts 35°
2026-04-29 16:32 15.62590 83.02212 38856 ft 454 kts 35°
2026-04-29 16:32 15.67479 83.06349 38857 ft 454 kts 35°
2026-04-29 16:33 15.74817 83.12559 38855 ft 454 kts 35°
2026-04-29 16:33 15.79708 83.16701 38854 ft 454 kts 35°
2026-04-29 16:34 15.84593 83.20843 38857 ft 454 kts 35°
2026-04-29 16:34 15.89492 83.24999 38851 ft 454 kts 35°
2026-04-29 16:35 15.94384 83.29151 38853 ft 454 kts 35°
2026-04-29 16:35 15.99278 83.33308 38852 ft 454 kts 35°
2026-04-29 16:36 16.04176 83.37471 38853 ft 455 kts 35°
2026-04-29 16:36 16.09072 83.41634 38849 ft 455 kts 35°
2026-04-29 16:37 16.13974 83.45806 38849 ft 455 kts 35°
2026-04-29 16:37 16.18049 83.49276 38845 ft 456 kts 35°
2026-04-29 16:38 16.22952 83.53454 38847 ft 456 kts 35°
2026-04-29 16:38 16.27856 83.57636 38847 ft 456 kts 35°
2026-04-29 16:39 16.32757 83.61817 38847 ft 456 kts 35°
2026-04-29 16:39 16.37663 83.66006 38846 ft 456 kts 34°
2026-04-29 16:40 16.42562 83.70191 38846 ft 456 kts 34°
2026-04-29 16:40 16.47460 83.74379 38847 ft 456 kts 34°
2026-04-29 16:41 16.52358 83.78569 38841 ft 455 kts 34°
2026-04-29 16:41 16.57251 83.82759 38842 ft 455 kts 34°
2026-04-29 16:42 16.62146 83.86952 38842 ft 455 kts 34°
2026-04-29 16:42 16.67030 83.91139 38841 ft 455 kts 34°
2026-04-29 16:43 16.71918 83.95331 38841 ft 454 kts 34°
2026-04-29 16:43 16.76798 83.99521 38838 ft 454 kts 34°
2026-04-29 16:44 16.81676 84.03711 38839 ft 454 kts 34°
2026-04-29 16:44 16.86558 84.07897 38840 ft 454 kts 34°
2026-04-29 16:45 16.91423 84.12039 38839 ft 454 kts 34°
2026-04-29 16:45 16.96324 84.16207 38838 ft 454 kts 34°
2026-04-29 16:46 17.01226 84.20382 38838 ft 455 kts 34°
2026-04-29 16:46 17.06124 84.24559 38839 ft 455 kts 34°
2026-04-29 16:47 17.11028 84.28744 38840 ft 455 kts 34°
2026-04-29 16:47 17.15931 84.32931 38839 ft 455 kts 34°
2026-04-29 16:48 17.20834 84.37122 38834 ft 455 kts 34°
2026-04-29 16:48 17.25739 84.41318 38838 ft 455 kts 34°
2026-04-29 16:49 17.30645 84.45517 38835 ft 456 kts 34°
2026-04-29 16:49 17.35551 84.49718 38839 ft 456 kts 34°
2026-04-29 16:50 17.40462 84.53909 38835 ft 455 kts 34°
2026-04-29 16:50 17.45377 84.58094 38844 ft 455 kts 34°
2026-04-29 16:51 17.50289 84.62281 38841 ft 455 kts 34°
2026-04-29 16:51 17.55199 84.66470 38842 ft 455 kts 34°
2026-04-29 16:52 17.60103 84.70661 38846 ft 455 kts 34°
2026-04-29 16:52 17.65012 84.74856 38845 ft 455 kts 34°
2026-04-29 16:53 17.69919 84.79060 38843 ft 455 kts 34°
2026-04-29 16:53 17.74811 84.83264 38846 ft 455 kts 34°
2026-04-29 16:54 17.79709 84.87478 38843 ft 455 kts 34°
2026-04-29 16:54 17.84613 84.91700 38840 ft 456 kts 34°
2026-04-29 16:55 17.89512 84.95919 38838 ft 456 kts 34°
2026-04-29 16:55 17.94419 85.00149 38839 ft 456 kts 34°
2026-04-29 16:56 17.99321 85.04378 38831 ft 456 kts 34°
2026-04-29 16:56 18.04227 85.08613 38836 ft 456 kts 34°
2026-04-29 16:57 18.09128 85.12846 38833 ft 456 kts 34°
2026-04-29 16:57 18.14022 85.17078 38829 ft 455 kts 34°
2026-04-29 16:58 18.18913 85.21308 38828 ft 455 kts 34°
2026-04-29 16:58 18.23796 85.25535 38831 ft 455 kts 34°
2026-04-29 16:59 18.28679 85.29766 38828 ft 454 kts 34°
2026-04-29 16:59 18.33556 85.33995 38828 ft 454 kts 34°
2026-04-29 17:00 18.38401 85.38201 38764 ft 454 kts 32°
2026-04-29 17:00 18.43314 85.42468 38828 ft 461 kts 32°
2026-04-29 17:01 18.48308 85.46798 38828 ft 469 kts 32°
2026-04-29 17:01 18.53372 85.51199 38825 ft 473 kts 32°
2026-04-29 17:02 18.58438 85.55616 38819 ft 472 kts 32°
2026-04-29 17:02 18.63501 85.60031 38819 ft 472 kts 31°
2026-04-29 17:03 18.68540 85.64426 38819 ft 472 kts 31°
2026-04-29 17:03 18.73602 85.68841 38821 ft 472 kts 31°
2026-04-29 17:04 18.78661 85.73259 38819 ft 472 kts 31°
2026-04-29 17:04 18.83721 85.77683 38818 ft 472 kts 31°
2026-04-29 17:05 18.88772 85.82101 38814 ft 471 kts 31°
2026-04-29 17:05 18.93819 85.86511 38811 ft 470 kts 31°
2026-04-29 17:06 18.98879 85.90882 38815 ft 470 kts 31°
2026-04-29 17:06 19.03942 85.95242 38810 ft 469 kts 31°
2026-04-29 17:07 19.09004 85.99607 38808 ft 469 kts 31°
2026-04-29 17:07 19.14056 86.03974 38811 ft 469 kts 31°
2026-04-29 17:08 19.19105 86.08342 38806 ft 469 kts 31°
2026-04-29 17:08 19.24149 86.12709 38810 ft 468 kts 31°
2026-04-29 17:09 19.29188 86.17075 38813 ft 468 kts 31°
2026-04-29 17:09 19.34225 86.21440 38810 ft 468 kts 31°
2026-04-29 17:10 19.39253 86.25802 38807 ft 467 kts 31°
2026-04-29 17:10 19.44275 86.30164 38810 ft 467 kts 31°
2026-04-29 17:11 19.49291 86.34526 38806 ft 466 kts 31°
2026-04-29 17:11 19.54302 86.38886 38803 ft 466 kts 31°
2026-04-29 17:12 19.59306 86.43244 38805 ft 465 kts 32°
2026-04-29 17:12 19.63458 86.46861 38807 ft 464 kts 32°
2026-04-29 17:13 19.69282 86.51922 38799 ft 462 kts 32°
2026-04-29 17:13 19.74254 86.56242 38797 ft 461 kts 32°
2026-04-29 17:14 19.79201 86.60547 38800 ft 459 kts 32°
2026-04-29 17:14 19.84136 86.64845 38799 ft 458 kts 32°
2026-04-29 17:15 19.89052 86.69130 38802 ft 456 kts 32°
2026-04-29 17:15 19.93949 86.73404 38796 ft 455 kts 32°
2026-04-29 17:16 19.98838 86.77670 38801 ft 455 kts 33°
2026-04-29 17:16 20.03729 86.81938 38800 ft 455 kts 33°
2026-04-29 17:17 20.08622 86.86212 38803 ft 455 kts 33°
2026-04-29 17:17 20.13486 86.90465 38802 ft 456 kts 33°
2026-04-29 17:18 20.18385 86.94755 38809 ft 456 kts 33°
2026-04-29 17:18 20.23292 86.99054 38811 ft 457 kts 34°
2026-04-29 17:19 20.28200 87.03359 38815 ft 457 kts 34°
2026-04-29 17:19 20.33111 87.07668 38819 ft 458 kts 34°
2026-04-29 17:20 20.38031 87.11990 38823 ft 458 kts 34°
2026-04-29 17:20 20.42929 87.16296 38821 ft 459 kts 34°
2026-04-29 17:21 20.47858 87.20631 38826 ft 460 kts 34°
2026-04-29 17:21 20.52799 87.24971 38827 ft 461 kts 34°
2026-04-29 17:22 20.57752 87.29325 38832 ft 462 kts 34°
2026-04-29 17:22 20.62709 87.33687 38830 ft 462 kts 34°
2026-04-29 17:23 20.67679 87.38064 38836 ft 463 kts 34°
2026-04-29 17:23 20.72655 87.42450 38840 ft 464 kts 34°
2026-04-29 17:24 20.76798 87.46104 38833 ft 465 kts 34°
2026-04-29 17:24 20.81782 87.50506 38838 ft 465 kts 34°
2026-04-29 17:25 20.86776 87.54909 38836 ft 465 kts 34°
2026-04-29 17:25 20.91777 87.59314 38836 ft 466 kts 34°
2026-04-29 17:26 20.96774 87.63721 38843 ft 466 kts 34°
2026-04-29 17:26 21.01777 87.68139 38836 ft 466 kts 34°
2026-04-29 17:27 21.06781 87.72562 38838 ft 467 kts 34°
2026-04-29 17:27 21.11783 87.76983 38833 ft 466 kts 34°
2026-04-29 17:28 21.16789 87.81411 38832 ft 466 kts 34°
2026-04-29 17:28 21.21789 87.85838 38831 ft 466 kts 34°
2026-04-29 17:29 21.26782 87.90266 38833 ft 466 kts 34°
2026-04-29 17:29 21.31782 87.94704 38834 ft 466 kts 34°
2026-04-29 17:30 21.36803 87.99098 38829 ft 464 kts 30°
2026-04-29 17:30 21.42286 88.02640 38830 ft 459 kts 23°
2026-04-29 17:31 21.47861 88.05878 38832 ft 459 kts 22°
2026-04-29 17:31 21.53505 88.09085 38830 ft 459 kts 22°
2026-04-29 17:32 21.59139 88.12297 38824 ft 458 kts 22°
2026-04-29 17:32 21.64764 88.15525 38824 ft 458 kts 22°
2026-04-29 17:33 21.70384 88.18761 38823 ft 458 kts 22°
2026-04-29 17:33 21.76000 88.21996 38821 ft 458 kts 22°
2026-04-29 17:34 21.81609 88.25223 38825 ft 455 kts 27°
2026-04-29 17:34 21.87167 88.28426 38819 ft 451 kts 27°
2026-04-29 17:35 21.95467 88.33220 38809 ft 451 kts 26°
2026-04-29 17:36 22.00999 88.36415 38810 ft 451 kts 26°
2026-04-29 17:36 22.06534 88.39617 38808 ft 451 kts 26°
2026-04-29 17:37 22.12063 88.42822 38803 ft 451 kts 26°
2026-04-29 17:37 22.17592 88.46025 38803 ft 451 kts 26°
2026-04-29 17:38 22.23123 88.49228 38796 ft 451 kts 26°
2026-04-29 17:38 22.28641 88.52429 38790 ft 450 kts 26°
2026-04-29 17:39 22.34159 88.55634 38791 ft 450 kts 26°
2026-04-29 17:39 22.39671 88.58839 38790 ft 450 kts 26°
2026-04-29 17:40 22.45175 88.62043 38781 ft 449 kts 26°
2026-04-29 17:40 22.50685 88.65252 38784 ft 450 kts 26°
2026-04-29 17:41 22.56186 88.68460 38714 ft 450 kts 26°
2026-04-29 17:41 22.61714 88.71687 38779 ft 451 kts 26°
2026-04-29 17:42 22.67225 88.74906 38775 ft 450 kts 26°
2026-04-29 17:42 22.72734 88.78123 38778 ft 450 kts 26°
2026-04-29 17:43 22.78247 88.81347 38783 ft 450 kts 25°
2026-04-29 17:43 22.83755 88.84573 38779 ft 449 kts 25°
2026-04-29 17:44 22.89241 88.87799 38780 ft 449 kts 27°
2026-04-29 17:44 22.91813 88.89744 38779 ft 453 kts 38°
2026-04-29 17:44 22.94004 88.92202 38781 ft 456 kts 50°
2026-04-29 17:45 22.97604 88.97834 38784 ft 458 kts 54°
2026-04-29 17:45 22.99374 89.00761 38597 ft 457 kts 55°
2026-04-29 17:45 23.01086 89.03606 38049 ft 456 kts 54°
2026-04-29 17:45 23.02821 89.06489 37433 ft 456 kts 54°
2026-04-29 17:46 23.04562 89.09377 36816 ft 457 kts 54°
2026-04-29 17:46 23.06303 89.12265 36210 ft 458 kts 54°
2026-04-29 17:46 23.08047 89.15159 35598 ft 458 kts 54°
2026-04-29 17:46 23.09794 89.18058 35002 ft 459 kts 54°
2026-04-29 17:47 23.11540 89.20958 34317 ft 457 kts 54°
2026-04-29 17:47 23.13282 89.23849 33242 ft 458 kts 54°
2026-04-29 17:47 23.15018 89.26733 32363 ft 454 kts 53°
2026-04-29 17:47 23.16738 89.29595 31542 ft 451 kts 53°
2026-04-29 17:48 23.18447 89.32442 30745 ft 448 kts 53°
2026-04-29 17:48 23.20141 89.35264 30024 ft 444 kts 53°
2026-04-29 17:48 23.21821 89.38064 29526 ft 441 kts 53°
2026-04-29 17:48 23.23503 89.40866 29266 ft 442 kts 53°
2026-04-29 17:49 23.25179 89.43659 29003 ft 440 kts 53°
2026-04-29 17:49 23.26846 89.46441 28742 ft 438 kts 53°
2026-04-29 17:49 23.28498 89.49200 28356 ft 433 kts 53°
2026-04-29 17:49 23.30137 89.51939 27808 ft 432 kts 53°
2026-04-29 17:50 23.31777 89.54678 27210 ft 431 kts 54°
2026-04-29 17:50 23.33413 89.57414 26623 ft 431 kts 54°
2026-04-29 17:50 23.35050 89.60151 26044 ft 432 kts 54°
2026-04-29 17:50 23.36690 89.62885 25426 ft 432 kts 53°
2026-04-29 17:51 23.38607 89.65376 24838 ft 428 kts 40°
2026-04-29 17:51 23.40826 89.67517 24275 ft 425 kts 36°
2026-04-29 17:51 23.43104 89.69573 23686 ft 425 kts 36°
2026-04-29 17:51 23.45390 89.71618 23026 ft 425 kts 36°
2026-04-29 17:52 23.47666 89.73661 22510 ft 421 kts 36°
2026-04-29 17:52 23.49144 89.74993 22333 ft 413 kts 36°
2026-04-29 17:52 23.51939 89.77831 21583 ft 413 kts 49°
2026-04-29 17:52 23.53540 89.80421 21071 ft 411 kts 56°
2026-04-29 17:53 23.54988 89.83087 20562 ft 407 kts 57°
2026-04-29 17:53 23.56400 89.85739 20095 ft 402 kts 57°
2026-04-29 17:53 23.57800 89.88362 19603 ft 398 kts 57°
2026-04-29 17:53 23.59188 89.90952 19127 ft 394 kts 57°
2026-04-29 17:54 23.60565 89.93516 18657 ft 389 kts 57°
2026-04-29 17:54 23.61926 89.96047 18201 ft 385 kts 57°
2026-04-29 17:54 23.63210 89.98432 17699 ft 381 kts 57°
2026-04-29 17:54 23.64636 90.00940 17128 ft 377 kts 55°
2026-04-29 17:55 23.66053 90.03337 16545 ft 375 kts 54°
2026-04-29 17:55 23.67466 90.05711 15982 ft 371 kts 55°
2026-04-29 17:55 23.68860 90.08055 15226 ft 366 kts 55°
2026-04-29 17:55 23.70241 90.10376 14407 ft 363 kts 55°
2026-04-29 17:56 23.71614 90.12670 13616 ft 360 kts 56°
2026-04-29 17:56 23.72977 90.14940 12796 ft 355 kts 56°
2026-04-29 17:56 23.74304 90.17152 12207 ft 345 kts 56°
2026-04-29 17:56 23.75581 90.19285 11890 ft 328 kts 56°
2026-04-29 17:57 23.76807 90.21335 11418 ft 318 kts 56°
2026-04-29 17:57 23.78090 90.23279 10870 ft 314 kts 45°
2026-04-29 17:57 23.79819 90.24641 10466 ft 303 kts 19°
2026-04-29 17:57 23.81149 90.25011 10184 ft 295 kts
2026-04-29 17:58 23.83727 90.24428 9614 ft 278 kts 327°
2026-04-29 17:58 23.85322 90.23307 9247 ft 269 kts 320°
2026-04-29 17:58 23.86828 90.22096 8901 ft 269 kts 319°
2026-04-29 17:58 23.88333 90.20868 8503 ft 270 kts 319°
2026-04-29 17:59 23.89847 90.19641 8101 ft 271 kts 319°
2026-04-29 17:59 23.91369 90.18414 7702 ft 273 kts 319°
2026-04-29 17:59 23.92901 90.17184 7279 ft 274 kts 319°
2026-04-29 17:59 23.94421 90.15971 7085 ft 265 kts 319°
2026-04-29 18:00 23.95860 90.14828 6957 ft 254 kts 319°
2026-04-29 18:00 23.97274 90.13705 6832 ft 243 kts 319°
2026-04-29 18:00 23.98678 90.12743 6524 ft 245 kts 333°
2026-04-29 18:00 24.00408 90.12503 6149 ft 256 kts
2026-04-29 18:01 24.01961 90.13401 5827 ft 255 kts 43°
2026-04-29 18:01 24.03080 90.14850 5513 ft 252 kts 53°
2026-04-29 18:01 24.04100 90.16400 5155 ft 251 kts 55°
2026-04-29 18:01 24.05098 90.17942 4909 ft 244 kts 56°
2026-04-29 18:02 24.06037 90.19430 4722 ft 233 kts 62°
2026-04-29 18:02 24.06458 90.21079 4420 ft 220 kts 98°
2026-04-29 18:02 24.05921 90.22539 4122 ft 202 kts 137°
2026-04-29 18:02 24.04901 90.23533 3823 ft 194 kts 148°
2026-04-29 18:03 24.03812 90.24382 3561 ft 189 kts 152°
2026-04-29 18:03 24.02728 90.25142 3410 ft 179 kts 152°
2026-04-29 18:03 24.01741 90.25898 3306 ft 167 kts 149°
2026-04-29 18:03 24.00846 90.26619 3163 ft 152 kts 149°
2026-04-29 18:04 24.00029 90.27277 3003 ft 137 kts 150°
2026-04-29 18:04 23.99293 90.27866 2785 ft 127 kts 151°
2026-04-29 18:04 23.98584 90.28428 2454 ft 126 kts 150°
2026-04-29 18:04 23.97880 90.28983 2139 ft 122 kts 150°
2026-04-29 18:05 23.97199 90.29522 1976 ft 120 kts 149°
2026-04-29 18:05 23.96516 90.30064 1987 ft 123 kts 149°
2026-04-29 18:05 23.95815 90.30622 1993 ft 126 kts 148°
2026-04-29 18:05 23.95104 90.31191 1991 ft 127 kts 148°
2026-04-29 18:06 23.94389 90.31764 1992 ft 128 kts 148°
2026-04-29 18:06 23.93673 90.32337 1987 ft 128 kts 148°
2026-04-29 18:06 23.92957 90.32909 1863 ft 127 kts 148°
2026-04-29 18:06 23.92242 90.33479 1693 ft 127 kts 147°
2026-04-29 18:07 23.91530 90.34047 1523 ft 126 kts 146°
2026-04-29 18:07 23.90821 90.34613 1349 ft 126 kts 146°
2026-04-29 18:07 23.90114 90.35177 1189 ft 126 kts 145°
2026-04-29 18:07 23.89410 90.35738 1021 ft 124 kts 144°
2026-04-29 18:08 23.88711 90.36296 855 ft 124 kts 143°
2026-04-29 18:08 23.88012 90.36853 691 ft 124 kts 142°
2026-04-29 18:08 23.87312 90.37413 526 ft 125 kts 143°
2026-04-29 18:08 23.86604 90.37978 347 ft 127 kts 144°
2026-04-29 18:09 23.85890 90.38552 191 ft 128 kts 146°
2026-04-29 18:09 23.85167 90.39120 43 ft 125 kts 146°
2026-04-29 18:09 23.84743 90.39454 40 ft 99 kts 143°
2026-04-29 18:09 23.84201 90.39884 38 ft 35 kts 143°
2026-04-29 18:10 23.84101 90.39995 39 ft 29 kts 126°
2026-04-29 18:10 23.84014 90.40175 39 ft 24 kts 112°
2026-04-29 18:10 23.83997 90.40311 39 ft 0 kts 86°
2026-04-29 18:11 23.83997 90.40313 39 ft 1 kts 86°
2026-04-29 18:11 23.84003 90.40361 39 ft 12 kts 77°
2026-04-29 18:11 23.84052 90.40472 39 ft 17 kts 53°
2026-04-29 18:12 23.84124 90.40567 39 ft 14 kts 36°
2026-04-29 18:12 23.84204 90.40555 39 ft 11 kts 321°
2026-04-29 18:12 23.84255 90.40508 39 ft 9 kts 325°
2026-04-29 18:12 23.84313 90.40463 39 ft 11 kts 324°
2026-04-29 18:13 23.84383 90.40408 39 ft 12 kts 324°
2026-04-29 18:13 23.84446 90.40359 38 ft 10 kts 324°
2026-04-29 18:13 23.84497 90.40317 39 ft 8 kts 323°
2026-04-29 18:13 23.84545 90.40280 39 ft 8 kts 327°
2026-04-29 18:14 23.84592 90.40243 39 ft 10 kts 323°
2026-04-29 18:14 23.84636 90.40250 39 ft 7 kts 30°
2026-04-29 18:14 23.84678 90.40314 39 ft 11 kts 42°
2026-04-29 18:14 23.84739 90.40315 39 ft 8 kts 330°
2026-04-29 18:15 23.84782 90.40286 39 ft 7 kts 356°
2026-04-29 18:15 23.84819 90.40312 39 ft 6 kts 50°
2026-04-29 18:15 23.84839 90.40342 39 ft 4 kts 54°
2026-04-29 18:15 23.84842 90.40346 39 ft 0 kts 56°
2026-04-29 18:16 23.84845 90.40350 39 ft 0 kts 53°